Regional Weather Roundup
Issued by NWS

Home | Current Version | Previous Version | Graphics & Text | Print | Product List | Glossary On
Versions: 1 2 3 4 5 6 7 8 9 10 11 12 13 14 15 16 17 18 19 20 21 22 23 24 25 26 27 28 29 30 31 32 33 34 35 36 37 38 39 40 41 42 43 44 45 46 47 48 49 50
000
ASUS43 KIND 031959
RWRIN

WEATHER ROUNDUP FOR INDIANA
NATIONAL WEATHER SERVICE INDIANAPOLIS IN
400 PM EDT TUE MAY 03 2016

NOTE: "FAIR" INDICATES FEW OR NO CLOUDS BELOW 12,000 FEET WITH NO
SIGNIFICANT WEATHER AND/OR OBSTRUCTIONS TO VISIBILITY.

* - STATION DOES NOT REPORT WEATHER SUCH AS PRECIPITATION OR FOG.

+ - STATION NOT QUALITY CONTROLLED BY THE NATIONAL WEATHER SERVICE.
    USE DATA WITH CAUTION...ESPECIALLY DEWPOINT AND RELATIVE
    HUMIDITY OBSERVATIONS.

INZ001>003-010>013-019-020-032100-
NORTHWEST INDIANA

CITY           SKY/WX    TMP DP  RH WIND       PRES   REMARKS
RENSSELAER +   MOSUNNY   64  32  29 NW7       29.88F

$$

LMZ046-743>745-032100-
SOUTHERN LAKE MICHIGAN

STATION/POSITION TIME  TEMP    WIND        PRES    WAVE
                       AIR SEA DIR/SP/G            HT
                 (UTC) (F)     (DEG/KT/KT) (MB)    (FT)
BURNS HARBOR     1900   62      60/  3/  3 1012.5F
MICHIGAN CITY    1900   56     230/  3/  3   N/A

$$

INZ004-005-014>016-021>024-032100-
NORTH CENTRAL INDIANA

CITY           SKY/WX    TMP DP  RH WIND       PRES   REMARKS
ELKHART        MOSUNNY   63  41  45 W8        29.86F
GOSHEN         CLOUDY    62  39  42 W7        29.86F
PERU/GRISSOM   MOSUNNY   61  45  55 VRB2      29.88F
SOUTH BEND     SUNNY     64  35  34 W12G17    29.87F

$$

INZ006>009-017-018-025>027-032100-
NORTHEAST INDIANA

CITY           SKY/WX    TMP DP  RH WIND       PRES   REMARKS
ANGOLA *+      PTSUNNY   63  37  39 CALM      29.85F
FORT WAYNE     PTSUNNY   59  43  55 W8        29.89F

$$

INZ028-029-035-036-043>045-051>053-032100-
WEST CENTRAL INDIANA

CITY           SKY/WX    TMP DP  RH WIND       PRES   REMARKS
CRAWFORDSVL +  CLOUDY    60  41  49 N8        29.91F
GREENCASTLE +  PTSUNNY   59  43  55 NW6       29.92F
LAFAYETTE      MOSUNNY   64  40  41 NW7       29.89F
TERRE HAUTE    MOSUNNY   63  38  39 N6        29.92F

$$

INZ030>032-037>040-046>048-054>057-064-065-032100-
CENTRAL INDIANA

CITY           SKY/WX    TMP DP  RH WIND       PRES   REMARKS
ANDERSON       MOSUNNY   57  46  67 NW6       29.91F
COLUMBUS       CLOUDY    54  52  94 NW10      29.93S
INDIANAPOLIS   PTSUNNY   59  46  62 CALM      29.90F
-EAGLE CREEK   PTSUNNY   59  48  67 VRB7      29.90F
KOKOMO *+      CLOUDY    63  46  55 W3        29.89F
SHELBYVILLE    CLOUDY    58  47  66 VRB5      29.91S

$$

INZ033-034-041-042-049-050-058-059-032100-
EAST CENTRAL INDIANA

CITY           SKY/WX    TMP DP  RH WIND       PRES   REMARKS
MUNCIE         CLOUDY    60  48  64 VRB5      29.90F

$$

INZ060-061-067>069-081>083-085>088-032100-
SOUTHWEST INDIANA

CITY           SKY/WX    TMP DP  RH WIND       PRES   REMARKS
EVANSVILLE     CLOUDY    61  44  53 NW8       29.96F
HUNTINGBURG *+ CLOUDY    57  46  67 NW6       29.95F

$$

INZ062-063-066-070>080-084-089>092-032100-
SOUTH CENTRAL AND SOUTHEAST INDIANA

CITY           SKY/WX    TMP DP  RH WIND       PRES   REMARKS
BLOOMINGTON    CLOUDY    58  46  64 NE3       29.92F
MADISON *+     CLOUDY    55  50  82 N8        29.93S
SEYMOUR +      LGT RAIN  55  50  82 NW12      29.93S

$$




USA.gov is the U.S. government's official web portal to all federal, state and local government web resources and services.